Date,TemperatureHighF,TemperatureAvgF,TemperatureLowF,DewpointHighF,DewpointAvgF,DewpointLowF,HumidityHigh,HumidityAvg,HumidityLow,PressureMaxIn,PressureMinIn,WindSpeedMaxMPH,WindSpeedAvgMPH,GustSpeedMaxMPH,PrecipitationSumIn
2014-1-1,67,49,30,55,42,28,96,80,62,30.31,30.04,19,2,20,0.00
2014-1-2,51,38,25,43,27,22,90,66,37,30.54,30.19,18,3,18,0.00
2014-1-3,56,38,18,38,23,17,93,63,28,30.55,30.19,13,2,15,0.00
2014-1-4,69,56,41,54,48,38,93,77,54,30.19,29.84,22,3,22,0.00
2014-1-5,56,42,30,54,30,17,92,63,40,30.53,29.82,29,5,29,0.00
2014-1-6,33,25,17,17,11,6,82,57,36,30.85,30.52,13,2,14,0.00
2014-1-7,46,32,14,28,14,10,90,55,24,30.72,30.41,16,2,16,0.00
2014-1-8,51,45,38,50,43,29,97,93,64,30.42,30.16,9,1,10,0.07
2014-1-9,69,58,50,61,56,49,97,93,75,30.22,30.02,13,1,13,0.00
2014-1-10,72,64,54,62,59,52,95,85,68,30.02,29.77,15,3,15,0.00
2014-1-11,72,54,36,54,38,25,97,63,18,30.21,29.88,12,1,12,0.01
2014-1-12,64,55,36,59,46,33,90,74,49,30.16,29.93,17,3,21,0.00
2014-1-13,67,55,31,60,36,20,93,57,18,30.19,29.90,20,4,21,0.00
2014-1-14,31,28,26,27,25,23,92,89,84,30.18,30.14,2,0,2,0.00
2014-1-16,70,57,41,36,32,25,73,41,24,30.28,30.12,13,2,14,0.00
2014-1-17,61,44,30,35,26,19,83,55,22,30.43,30.27,15,1,18,0.00
2014-1-18,68,46,28,44,34,24,91,67,39,30.32,30.15,16,2,16,0.00
2014-1-19,71,49,32,38,33,24,93,61,18,30.40,30.16,6,0,7,0.00
2014-1-20,80,60,38,54,39,27,85,51,17,30.22,29.89,21,3,21,0.00
2014-1-21,59,47,28,31,26,23,84,46,26,30.48,30.21,14,2,19,0.00
2014-1-22,67,48,28,39,28,23,87,51,23,30.28,30.05,18,1,18,0.00
2014-1-23,51,37,23,42,30,19,88,75,56,30.78,30.11,18,4,19,0.00
2014-1-24,40,28,22,23,17,10,87,64,43,30.81,30.43,11,2,11,0.01
2014-1-25,69,43,22,43,30,19,92,64,26,30.44,30.07,12,1,14,0.03
2014-1-26,78,57,41,48,41,35,86,60,28,30.07,29.72,19,2,19,0.00
2014-1-27,47,40,30,38,22,7,89,52,29,30.34,29.85,18,2,18,0.00
2014-1-28,39,29,23,22,14,9,76,54,34,30.56,30.31,14,2,14,0.00
2014-1-29,47,32,18,22,16,11,88,57,28,30.58,30.31,15,2,17,0.01
2014-1-30,62,46,30,50,38,18,91,73,55,30.31,29.94,21,4,21,0.00
2014-1-31,77,63,52,60,55,50,92,77,48,29.99,29.82,20,4,20,0.00
2014-2-1,73,65,50,63,59,41,91,79,65,29.95,29.78,19,3,21,0.00
2014-2-2,50,38,31,42,33,28,91,84,71,30.32,29.93,13,4,18,0.01
2014-2-3,42,36,30,37,33,28,94,89,79,30.33,30.02,12,3,13,0.00
2014-2-4,39,39,39,37,37,37,94,94,93,30.04,30.00,3,0,5,0.00
2014-2-5,42,34,27,29,23,18,75,63,50,30.56,30.41,15,4,15,0.01
2014-2-6,27,25,21,18,17,14,75,70,66,30.62,30.47,13,2,13,0.00
2014-2-7,35,30,25,30,24,17,87,79,73,30.47,30.31,7,1,7,0.00
2014-2-8,67,47,33,47,38,29,93,76,46,30.32,30.06,15,1,15,0.00
2014-2-9,77,55,39,56,47,37,94,75,45,30.16,29.95,14,1,14,0.00
2014-2-10,52,37,30,46,35,28,94,90,80,30.29,30.08,15,2,15,0.00
2014-2-11,32,30,30,30,28,27,94,91,85,30.37,30.26,14,3,14,0.00
2014-2-12,55,38,29,36,30,27,92,76,48,30.34,30.14,12,2,13,0.01
2014-2-13,69,47,25,41,34,23,95,66,35,30.17,29.96,16,2,16,0.00
2014-2-14,82,58,42,49,39,31,92,54,22,30.14,29.88,20,2,20,0.00
2014-2-15,75,52,32,51,36,27,83,57,29,30.22,30.04,15,2,15,0.00
2014-2-16,74,62,55,62,58,51,95,87,67,30.10,29.97,14,2,14,0.00
2014-2-17,77,65,48,63,49,32,93,63,22,30.16,29.95,21,3,21,0.00
2014-2-18,79,62,43,63,52,32,91,71,53,30.15,29.92,10,2,15,0.00
2014-2-19,77,65,57,65,61,55,96,87,62,29.96,29.74,14,2,15,0.00
2014-2-20,80,66,47,65,49,30,90,60,16,30.13,29.73,17,4,18,0.00
2014-2-21,69,51,29,34,30,25,87,48,22,30.25,30.06,15,2,15,0.00
2014-2-22,74,59,42,58,47,29,84,66,40,30.10,29.89,16,2,17,0.00
2014-2-23,83,68,57,62,56,45,95,69,37,30.09,29.91,13,2,13,0.00
2014-2-24,74,60,50,60,52,44,92,75,61,30.14,30.01,11,2,11,0.00
2014-2-25,64,57,47,63,56,46,97,96,92,30.10,29.98,11,1,11,0.07
2014-2-26,47,37,27,46,31,23,96,80,51,30.32,30.09,18,2,20,0.08
2014-2-27,58,41,23,36,29,21,94,67,40,30.29,29.97,13,2,13,0.00
2014-2-28,83,58,41,56,46,34,88,69,31,29.97,29.79,14,2,14,0.00
2014-3-1,79,64,45,67,58,42,94,82,63,30.05,29.90,17,2,19,0.00
2014-3-2,70,44,24,66,41,20,95,90,75,30.36,29.91,19,4,20,0.06
2014-3-3,43,30,19,27,20,13,86,67,45,30.51,30.33,22,5,22,0.01
2014-3-4,53,38,28,41,33,24,94,84,63,30.36,30.09,9,1,9,0.01
2014-3-5,57,44,33,46,40,31,95,86,66,30.24,30.01,11,1,11,0.00
2014-3-6,63,47,35,42,39,32,95,76,41,30.33,30.12,11,2,15,0.00
2014-3-7,66,51,32,51,43,30,96,75,50,30.15,29.92,16,2,16,0.00
2014-3-8,60,52,42,58,48,37,95,87,68,30.34,29.93,13,2,14,0.82
2014-3-9,62,47,37,47,40,32,89,76,57,30.42,30.26,12,2,12,0.00
2014-3-10,74,57,42,60,51,41,95,82,60,30.30,29.96,11,1,11,0.02
2014-3-11,86,67,55,59,55,53,94,71,34,29.96,29.60,14,3,14,0.00
2014-3-12,70,54,39,54,33,21,76,48,20,30.34,29.73,16,4,23,0.00
2014-3-13,68,50,29,39,31,26,91,53,24,30.42,30.16,14,2,14,0.00
2014-3-14,74,60,50,59,52,40,90,76,54,30.16,29.97,17,2,17,0.00
2014-3-15,74,64,59,64,61,56,95,89,71,30.03,29.70,13,2,13,0.01
2014-3-16,61,54,47,57,44,34,96,71,48,30.12,29.72,25,6,26,0.00
2014-3-17,68,52,38,35,30,25,65,45,21,30.11,29.80,13,3,20,0.00
2014-3-18,84,65,47,58,43,32,78,48,25,29.87,29.69,20,4,21,0.00
2014-3-19,69,58,43,57,38,30,89,50,31,30.25,29.88,14,2,15,0.00
2014-3-20,78,57,35,43,38,32,91,56,24,30.30,30.07,9,1,9,0.00
2014-3-21,80,67,55,61,55,42,86,67,48,30.08,29.84,19,3,20,0.00
2014-3-22,74,67,58,67,62,52,96,86,72,30.06,29.90,10,2,12,0.00
2014-3-23,59,52,44,52,43,37,83,72,53,30.32,30.05,16,3,16,0.00
2014-3-24,69,56,47,50,45,39,86,68,50,30.31,30.07,11,1,11,0.00
2014-3-25,66,52,37,45,39,33,96,65,32,30.41,30.19,17,2,17,0.00
2014-3-26,65,57,48,56,48,34,86,72,49,30.26,29.97,23,4,26,0.00
2014-3-27,84,69,59,69,63,56,96,83,54,29.97,29.74,19,4,19,0.04
2014-3-28,86,71,61,70,64,51,94,78,41,30.04,29.73,20,2,20,0.25
2014-3-29,76,61,47,51,43,28,82,58,21,30.32,30.04,14,2,14,0.00
2014-3-30,78,60,39,54,45,36,93,63,33,30.27,30.03,23,3,23,0.00
2014-3-31,84,70,59,63,58,52,90,70,47,30.06,29.85,19,4,20,0.00
2014-4-1,84,73,65,68,65,62,95,77,55,29.99,29.84,21,4,21,0.00
2014-4-2,82,74,70,70,68,66,92,80,65,29.89,29.71,19,4,19,0.00
2014-4-3,82,75,71,70,68,64,93,81,65,29.83,29.67,18,4,19,0.00
2014-4-4,72,62,50,68,36,28,92,41,22,30.17,29.82,18,4,18,0.00
2014-4-5,62,56,50,46,41,36,66,56,42,30.14,29.90,16,3,16,0.00
2014-4-6,60,53,49,50,48,46,95,85,62,29.93,29.78,14,2,14,1.26
2014-4-7,71,56,48,55,50,46,95,83,55,30.09,29.85,24,2,28,0.18
2014-4-8,75,60,47,49,42,34,93,59,25,30.26,30.08,23,5,23,0.00
2014-4-9,85,63,38,54,43,36,95,57,21,30.31,30.09,18,2,18,0.00
2014-4-10,86,71,59,59,55,51,88,61,32,30.14,29.92,22,4,22,0.00
2014-4-11,86,72,61,65,61,57,89,70,48,30.03,29.90,19,4,20,0.00
2014-4-12,85,72,65,66,63,60,86,73,51,29.98,29.81,19,4,20,0.00
2014-4-13,78,72,67,70,66,63,91,83,75,29.85,29.65,23,3,25,0.00
2014-4-14,72,56,40,69,47,34,92,72,47,30.30,29.68,25,4,25,0.12
2014-4-15,67,50,36,35,28,20,84,49,20,30.43,30.19,13,2,16,0.00
2014-4-16,72,55,35,50,41,31,87,62,39,30.19,29.96,21,3,21,0.00
2014-4-17,66,59,55,60,56,50,95,88,75,30.20,30.02,14,2,14,0.02
2014-4-18,76,64,55,62,58,52,96,81,53,30.25,30.12,13,1,13,0.03
2014-4-19,78,64,48,60,54,46,96,73,48,30.22,30.07,15,2,15,0.00
2014-4-20,73,66,62,65,61,57,93,84,73,30.17,30.05,14,1,14,0.00
2014-4-21,86,72,63,68,63,58,94,77,52,30.08,29.88,18,2,20,0.00
2014-4-22,85,72,59,66,60,55,95,69,42,30.07,29.92,13,2,13,0.00
2014-4-23,87,71,53,68,61,51,95,73,49,29.97,29.75,19,3,20,0.00
2014-4-24,93,74,57,68,57,39,91,64,17,29.95,29.78,18,2,22,0.00
2014-4-25,88,71,49,66,54,44,86,59,36,30.06,29.87,19,2,19,0.00
2014-4-26,82,73,65,70,67,62,92,81,63,29.91,29.65,18,3,18,0.00
2014-4-27,94,81,72,73,62,40,89,62,16,29.66,29.45,21,3,21,0.00
2014-4-28,90,76,57,65,38,28,83,32,12,29.74,29.56,24,3,24,0.00
2014-4-29,81,68,51,45,37,26,70,35,15,30.01,29.63,19,3,19,0.00
2014-4-30,73,62,49,40,36,33,66,40,27,30.21,30.01,17,2,18,0.00
2014-5-1,78,61,44,42,35,27,77,44,18,30.24,30.05,14,1,14,0.00
2014-5-2,80,62,43,45,37,32,78,45,19,30.13,29.98,14,2,15,0.00
2014-5-3,93,75,50,45,38,28,62,29,12,30.09,29.97,17,3,17,0.00
2014-5-4,91,77,62,46,40,36,41,28,18,30.11,29.95,18,3,19,0.00
2014-5-5,92,75,61,64,58,38,85,57,32,30.02,29.79,19,3,22,0.00
2014-5-6,86,72,62,68,63,57,90,74,53,29.87,29.73,20,3,23,0.00
2014-5-7,88,75,69,70,66,63,87,74,51,29.87,29.76,22,4,22,0.00
2014-5-8,84,75,66,74,70,64,96,86,70,29.85,29.74,22,3,22,0.15
2014-5-9,84,76,64,74,68,54,95,77,39,29.94,29.79,19,2,19,0.00
2014-5-10,90,74,56,69,64,54,96,72,44,29.95,29.76,15,2,17,0.00
2014-5-11,90,79,70,70,69,66,90,73,50,29.84,29.67,21,4,24,0.00
2014-5-12,77,72,61,75,69,59,95,89,83,29.99,29.74,18,3,19,0.87
2014-5-13,64,58,54,59,53,50,96,83,63,30.31,29.92,20,3,20,0.90
2014-5-14,73,60,47,51,46,39,94,67,31,30.34,30.22,20,3,20,0.14
2014-5-15,83,63,40,53,43,35,95,57,20,30.35,30.14,14,2,14,0.00
2014-5-16,87,73,59,50,44,40,64,39,20,30.16,29.97,20,4,20,0.00
2014-5-17,87,73,60,63,55,44,78,55,38,30.03,29.91,19,4,19,0.00
2014-5-18,84,73,62,64,61,55,92,68,45,30.09,29.98,19,3,23,0.00
2014-5-19,76,68,65,64,62,60,89,82,63,30.06,30.00,16,3,18,0.00
2014-5-20,88,82,72,66,65,63,82,57,48,30.03,29.98,20,4,21,0.00
2014-5-21,88,77,69,69,65,62,87,68,45,30.09,29.97,19,3,20,0.00
2014-5-22,88,76,69,71,68,63,91,75,55,30.10,29.98,17,3,17,0.00
2014-5-23,76,73,71,68,67,66,85,80,76,30.05,29.98,10,2,10,0.00
2014-5-24,84,74,69,74,69,66,96,87,67,30.06,29.92,14,2,15,0.58
2014-5-25,84,73,65,72,68,63,96,85,61,30.10,29.92,17,2,18,0.18
2014-5-26,74,68,62,68,65,60,96,90,78,30.10,29.90,23,2,23,1.22
2014-5-27,75,67,62,69,65,60,97,93,82,30.05,29.86,23,2,24,1.42
2014-5-28,68,68,66,68,67,65,98,97,95,29.93,29.88,9,1,9,0.01
2014-5-29,86,78,60,70,66,59,97,70,51,29.93,29.83,11,1,11,0.00
2014-5-30,92,76,62,71,67,61,96,75,43,29.89,29.80,17,2,17,0.00
2014-5-31,89,78,64,72,69,63,96,75,52,29.92,29.84,9,1,11,0.00
2014-6-1,88,77,66,74,69,64,97,78,55,29.96,29.85,14,2,14,0.00
2014-6-2,92,80,73,73,70,68,90,73,50,29.98,29.88,15,3,19,0.00
2014-6-3,90,80,73,74,72,70,92,77,56,30.02,29.90,14,2,14,0.00
2014-6-4,90,80,72,74,71,69,92,75,54,29.92,29.81,15,2,16,0.00
2014-6-5,90,81,72,75,72,69,91,75,55,29.87,29.79,17,3,18,0.00
2014-6-6,91,81,72,74,71,69,93,75,54,29.96,29.83,19,3,19,0.00
2014-6-7,92,82,72,73,71,69,92,72,52,29.97,29.82,20,3,20,0.00
2014-6-8,90,79,72,77,72,69,94,79,57,29.99,29.78,15,2,16,0.37
2014-6-9,82,75,65,75,71,63,96,86,74,29.90,29.76,18,2,19,0.40
2014-6-10,89,74,62,69,63,58,95,69,41,29.94,29.82,18,2,18,0.00
2014-6-11,94,79,60,74,67,58,96,71,41,29.92,29.76,18,2,18,0.00
2014-6-12,93,81,65,77,73,63,96,77,58,30.01,29.68,22,5,25,1.68
2014-6-13,90,75,66,75,69,64,96,81,56,30.00,29.84,15,2,15,0.00
2014-6-14,85,80,77,74,72,71,82,77,67,29.89,29.82,13,2,13,0.00
2014-6-15,77,76,75,72,72,71,90,87,83,29.88,29.84,13,3,14,0.00
2014-6-19,91,86,79,74,71,68,72,61,50,30.04,29.97,15,3,16,0.00
2014-6-20,90,80,74,73,71,69,92,75,53,30.10,29.98,14,2,15,0.00
2014-6-21,92,81,73,74,72,68,92,75,50,30.05,29.89,15,2,15,0.00
2014-6-22,89,81,76,74,72,70,89,75,55,29.94,29.82,17,2,17,0.00
2014-6-23,86,77,69,76,72,66,93,85,69,30.02,29.84,12,1,16,0.19
2014-6-24,92,80,73,75,72,69,94,78,53,30.05,29.93,24,2,24,0.00
2014-6-25,91,79,73,76,72,66,94,80,48,30.05,29.93,20,2,21,0.12
2014-6-26,90,78,69,75,71,67,95,80,58,30.02,29.86,18,2,19,0.00
2014-6-27,90,81,74,75,72,69,90,76,55,29.92,29.79,21,3,22,0.00
2014-6-28,92,82,75,75,74,72,93,76,56,29.95,29.84,20,3,22,0.02
2014-6-29,94,84,76,75,74,72,87,72,51,30.01,29.92,20,4,21,0.00
2014-6-30,95,84,76,74,71,65,87,68,39,30.00,29.86,19,4,20,0.00
2014-7-1,96,84,73,74,70,67,91,67,42,30.00,29.87,23,3,23,0.00
2014-7-2,97,83,72,73,69,62,93,66,35,30.05,29.97,13,2,13,0.00
2014-7-3,95,79,68,73,68,65,93,71,43,30.16,30.03,21,2,21,0.00
2014-7-4,94,80,69,73,68,62,90,70,37,30.21,30.10,17,2,17,0.00
2014-7-5,95,79,65,72,68,62,93,71,41,30.20,30.06,20,2,20,0.00
2014-7-6,95,82,68,73,70,66,95,69,44,30.09,29.93,16,2,16,0.00
2014-7-7,97,84,72,71,67,61,86,59,35,30.02,29.92,15,2,15,0.00
2014-7-8,97,85,73,73,69,64,92,63,36,30.04,29.96,19,2,19,0.00
2014-7-9,97,84,72,72,66,57,87,57,28,30.07,29.94,14,2,16,0.00
2014-7-10,95,82,67,73,68,62,93,64,39,30.08,29.94,15,2,15,0.00
2014-7-11,93,81,70,74,67,60,90,67,35,30.14,30.05,20,2,20,0.00
2014-7-12,98,82,66,72,65,56,95,60,26,30.18,30.03,15,2,16,0.00
2014-7-13,100,85,70,72,68,63,90,59,33,30.11,29.97,15,2,15,0.00
2014-7-14,101,85,70,72,68,63,90,60,31,30.05,29.89,11,1,11,0.00
2014-7-15,91,78,71,77,70,66,95,80,56,30.02,29.93,16,1,16,0.37
2014-7-16,94,80,70,76,71,68,96,77,50,30.02,29.85,15,1,15,0.02
2014-7-17,87,79,76,78,74,70,94,83,66,29.92,29.78,11,1,12,0.34
2014-7-18,77,73,70,74,70,68,97,92,79,30.01,29.88,11,1,11,1.70
2014-7-19,85,76,68,73,69,66,93,82,66,30.05,29.95,10,2,10,0.00
2014-7-20,94,81,70,78,74,69,95,78,56,30.03,29.90,12,2,13,0.00
2014-7-21,95,85,75,76,75,72,93,74,50,30.03,29.92,16,2,20,0.00
2014-7-22,96,83,72,75,72,67,95,71,44,30.06,29.97,11,1,12,0.00
2014-7-23,96,83,71,78,72,69,95,71,43,30.08,29.95,12,2,13,0.00
2014-7-24,92,81,73,78,72,68,93,76,47,30.06,29.93,11,1,11,0.08
2014-7-25,98,83,70,74,71,68,95,69,41,30.05,29.91,13,2,13,0.00
2014-7-26,98,86,74,74,72,68,93,65,40,30.03,29.90,14,2,16,0.00
2014-7-27,99,86,74,75,71,67,88,64,37,30.05,29.95,16,2,16,0.00
2014-7-28,98,85,71,74,69,62,91,62,33,30.13,30.00,13,2,14,0.00
2014-7-29,97,82,70,75,72,68,93,72,46,30.11,30.01,20,2,21,0.00
2014-7-30,96,84,70,73,68,63,89,61,37,30.05,29.88,17,2,17,0.00
2014-7-31,94,83,76,75,71,59,88,69,46,30.01,29.91,14,2,14,0.00
2014-8-1,88,78,70,69,66,64,85,69,52,30.04,29.96,15,2,15,0.00
2014-8-2,90,76,63,69,66,61,95,73,46,30.10,29.99,17,2,17,0.00
2014-8-3,93,78,64,71,66,62,93,69,43,30.09,29.96,15,2,15,0.00
2014-8-4,93,81,68,74,69,65,93,70,47,30.06,29.94,13,2,14,0.00
2014-8-5,96,83,68,74,69,65,93,66,38,30.08,29.95,14,2,14,0.00
2014-8-6,98,86,73,74,70,65,91,62,39,30.04,29.88,14,2,14,0.00
2014-8-7,102,88,76,76,71,64,90,61,33,29.96,29.80,16,2,16,0.00
2014-8-8,102,88,75,75,71,64,91,60,32,29.96,29.83,10,2,16,0.00
2014-8-9,100,87,76,73,69,63,87,58,33,30.02,29.87,13,2,15,0.00
2014-8-10,101,88,74,74,70,63,86,58,32,30.03,29.89,16,2,16,0.00
2014-8-11,98,80,72,79,72,68,95,78,43,30.06,29.98,14,1,14,0.12
2014-8-12,98,82,68,75,68,58,96,67,33,30.09,29.95,12,1,12,0.01
2014-8-13,96,79,61,63,60,57,89,57,31,30.10,29.97,18,2,18,0.00
2014-8-14,97,80,62,70,63,58,89,59,34,30.07,29.92,15,2,17,0.00
2014-8-15,99,84,72,75,69,65,91,63,35,30.03,29.84,14,2,14,0.00
2014-8-16,103,88,76,75,70,60,88,60,27,29.97,29.83,17,2,17,0.00
2014-8-17,100,84,77,75,72,66,85,69,37,29.99,29.87,16,2,16,0.00
2014-8-18,100,86,75,75,71,66,86,65,37,29.97,29.81,15,2,17,0.00
2014-8-19,97,84,76,72,69,66,83,63,38,29.95,29.81,17,2,18,0.00
2014-8-20,99,87,76,75,71,66,88,63,35,29.97,29.85,21,3,22,0.00
2014-8-21,101,88,78,76,70,62,87,60,29,30.03,29.92,21,4,21,0.00
2014-8-22,101,88,76,75,69,62,87,58,29,30.05,29.92,17,3,17,0.00
2014-8-23,99,86,69,74,69,65,93,62,36,30.02,29.86,19,2,19,0.00
2014-8-24,100,86,75,74,70,65,90,61,34,29.95,29.83,15,2,17,0.00
2014-8-25,100,86,72,74,69,61,89,62,29,29.96,29.85,16,2,16,0.00
2014-8-26,84,78,74,80,76,72,96,91,79,30.00,29.92,4,0,10,0.60
2014-8-27,95,81,70,77,70,63,96,72,39,30.05,29.92,14,2,14,0.00
2014-8-28,97,81,67,74,70,65,95,72,44,29.99,29.82,19,2,19,0.00
2014-8-29,96,83,75,76,73,71,92,73,47,29.93,29.80,21,3,21,0.00
2014-8-30,96,83,72,75,72,68,93,71,46,29.96,29.85,15,2,16,0.00
2014-8-31,96,84,74,75,72,70,91,71,48,29.98,29.86,17,2,17,0.00